This is the latest recevied weather packets stored in our database for station/object KR4CWL-13. If no packets are shown the sender has not sent any weather packets the latest 1 day(s).
| Time | Temp. | Humidity | Pressure | Rain* | Wind** | Luminosity | Snow |
|---|---|---|---|---|---|---|---|
| 1778066740 | 16.11° C | 87% | 1007.1 hPa | 0 mm | - | - | - |
| 1778066140 | 15.56° C | 89% | 1007.1 hPa | 0 mm | - | - | - |
| 1778065540 | 15.56° C | 89% | 1007.1 hPa | 0 mm | - | - | - |
| 1778064940 | 15° C | 89% | 1006.8 hPa | 0 mm | - | - | - |
| 1778064340 | 15° C | 89% | 1007.1 hPa | 0 mm | - | - | - |
| 1778063740 | 15° C | 88% | 1007.1 hPa | 0 mm | - | - | - |
| 1778063140 | 15.56° C | 87% | 1007.1 hPa | 0 mm | - | - | - |
| 1778062540 | 15.56° C | 87% | 1006.8 hPa | 0 mm | - | - | - |
| 1778061940 | 15.56° C | 86% | 1006.8 hPa | 0 mm | - | - | - |
| 1778061340 | 16.11° C | 85% | 1007.1 hPa | 0 mm | - | - | - |
| 1778059540 | 16.11° C | 84% | 1007.1 hPa | 0 mm | - | - | - |
| 1778052939 | 16.67° C | 81% | 1007.1 hPa | 0 mm | - | - | - |
| 1778052339 | 16.67° C | 80% | 1007.4 hPa | 0 mm | - | - | - |
| 1778051739 | 16.67° C | 79% | 1007.4 hPa | 0 mm | - | - | - |
| 1778051139 | 16.67° C | 79% | 1007.4 hPa | 0 mm | - | - | - |
| 1778050539 | 16.67° C | 79% | 1007.8 hPa | 0 mm | - | - | - |
| 1778049939 | 17.22° C | 78% | 1007.4 hPa | 0 mm | - | - | - |
| 1778049339 | 17.22° C | 78% | 1007.8 hPa | 0 mm | - | - | - |
| 1778048139 | 17.22° C | 77% | 1007.8 hPa | 0 mm | - | - | - |
| 1778047539 | 17.78° C | 77% | 1007.8 hPa | 0 mm | - | - | - |
| 1778046339 | 17.78° C | 76% | 1008.1 hPa | 0 mm | - | - | - |
| 1778045139 | 17.78° C | 77% | 1008.1 hPa | 0 mm | - | - | - |
| 1778044539 | 17.78° C | 77% | 1008.1 hPa | 0 mm | - | - | - |
| 1778043939 | 17.78° C | 77% | 1008.5 hPa | 0 mm | - | - | - |
| 1778043339 | 17.78° C | 76% | 1008.1 hPa | 0 mm | - | - | - |
* Rain since midnight (hover to see other rain measurements)
** Current wind speed in m/s (hover to see current wind gust speed)